Showing default

NESS, 58020

Orbit data source: Space-Track

NESS, 58020 is a payload satellite owned by CNES (FR) in SSO that was launched on Mon, 09 Oct 2023 UTC via a VEGA launch vehicle from the French Guiana (FRGUI). Payload-class satellites include a variety of spacecraft equipped with specific instruments for various scientific and technological missions. These include communications satellites like Starlink; space stations such as the ISS; scientific satellites like the Hubble; Earth observation satellites from companies like Planet Labs, Umbra, and HawkEye 360; GPS; miniature CubeSats for education and research; and military/defense satellites.

Loading next visibility...
Identifier
58020, 2023-155E
Orbit
SSO
Country
Flag of FRFR
Related business
Manufacturer
U-Space
Mission
Operational Civil Sigint
Bus & Motor
CUBESAT 3U, Unknown motor
Mass
5 kg wet, 5 kg dry
Launch date (UTC)
2023-10-09 (2 years ago)
Launch vehicle
VEGA
Launch site
French Guiana (FRGUI)
Object type
Payload
Rocket body
Debris
Shape & HBR
Box + 4 Pan, 0.1 m
Radar Cross Section
0.035 m², Small (<0.1 m²)

Expand to show TLE details & history
Last TLE update: 21 hours ago

TLE from 21 hours ago
0 NESS
1 58020U 23155E   25307.45216707  .00015872  00000-0  70743-3 0  9997
2 58020  97.6116  24.5058 0006185 269.7679  90.2848 15.21495131114062
Epoch: 2025-11-03T10:51Z
TLE epoch observation values (Epoch: 2025-11-03T10:51:07.234Z)
Latitude
-0.00001°
Longitude
178.77232°
Altitude
504.44 km
Speed
7.612 km/s
True Right ascension
01h 38m 01s
True Declination
0° 00' 00"
Sunlit
Object was in full shadow at epoch
Visualization orbit readout
Latitude
Unknown
Longitude
Unknown
Altitude
Unknown
Speed
Unknown
Apparent Right ascension
Unknown
Apparent Declination
Unknown
Sunlit
N/A
Visualization observer readout
Local Sidereal Time
03:53:14
Azimuth
Unknown
Elevation
Unknown
Doppler factor
Unknown
Orbital elements
Apogee altitude
502.556 km
Perigee altitude
494.05 km
Semi-major axis
6,876.44 km
Eccentricity
0.00062
Inclination
97.6116°
RAAN
24.5058°
Arg. of periapsis
269.7679°
True anomaly
90.35567°
Mean anomaly
90.2848°
Eccentric anomaly
90.32024°
Mean motion
3.80625 °/min
Orbital period
94.58 mins
BSTAR
0.00070743
Loading maneuver chart data...
Computing Atmospheric mass density...
Loading historical data...
Loading historical data...
Loading historical data...
Loading historical data...
Loading historical data...
Loading historical data...
Loading historical data...

Documentation

Showing up to 5 results
|